H1 CPF 2 NER 2022 2 1 9 032 01 glonass121 H2 1000702 9121 36401 2022 2 1 0 0 0 2022 2 4 23 45 0 900 1 1 0 0 0 1 H9 10 0 59611 0.00000 0 11085431.315 22144721.136 -6337675.372 10 0 59611 900.00000 0 10706301.526 21227834.631 -9386753.923 10 0 59611 1800.00000 0 10029336.871 20061316.295 -12254603.439 10 0 59611 2700.00000 0 9035646.632 18702985.633 -14885791.633 10 0 59611 3600.00000 0 7718988.416 17215172.065 -17229397.351 10 0 59611 4500.00000 0 6086296.439 15662093.631 -19239985.028 10 0 59611 5400.00000 0 4157666.560 14107173.086 -20878479.708 10 0 59611 6300.00000 0 1965795.907 12610401.680 -22112926.437 10 0 59611 7200.00000 0 -445102.840 11225859.422 -22919119.417 10 0 59611 8100.00000 0 -3020871.068 9999494.591 -23281088.384 10 0 59611 9000.00000 0 -5699396.305 8967255.207 -23191431.772 10 0 59611 9900.00000 0 -8412947.369 8153651.307 -22651488.597 10 0 59611 10800.00000 0 -11090758.589 7570809.509 -21671343.683 10 0 59611 11700.00000 0 -13661757.819 7218061.394 -20269663.665 10 0 59611 12600.00000 0 -16057325.857 7082085.192 -18473364.399 10 0 59611 13500.00000 0 -18213972.514 7137597.049 -16317113.653 10 0 59611 14400.00000 0 -20075816.869 7348564.777 -13842676.477 10 0 59611 15300.00000 0 -21596766.339 7669894.322 -11098114.253 10 0 59611 16200.00000 0 -22742301.188 8049518.378 -8136851.904 10 0 59611 17100.00000 0 -23490787.222 8430798.498 -5016631.150 10 0 59611 18000.00000 0 -23834259.206 8755137.737 -1798370.854 10 0 59611 18900.00000 0 -23778640.348 8964690.936 1455041.927 10 0 59611 19800.00000 0 -23343387.585 9005054.902 4680004.566 10 0 59611 20700.00000 0 -22560577.627 8827821.152 7813468.022 10 0 59611 21600.00000 0 -21473473.295 8392879.730 10794195.012 10 0 59611 22500.00000 0 -20134632.497 7670373.480 13563979.913 10 0 59611 23400.00000 0 -18603642.203 6642217.649 16068804.021 10 0 59611 24300.00000 0 -16944575.862 5303118.992 18259901.821 10 0 59611 25200.00000 0 -15223284.258 3661050.588 20094716.261 10 0 59611 26100.00000 0 -13504636.393 1737162.574 21537723.965 10 0 59611 27000.00000 0 -11849828.191 -434866.604 22561114.775 10 0 59611 27900.00000 0 -10313872.884 -2810009.851 23145313.513 10 0 59611 28800.00000 0 -8943378.202 -5333550.889 23279335.521 10 0 59611 29700.00000 0 -7774702.234 -7943152.608 22960971.244 10 0 59611 30600.00000 0 -6832562.929 -10571246.763 22196798.600 10 0 59611 31500.00000 0 -6129156.504 -13147644.596 21002025.293 10 0 59611 32400.00000 0 -5663818.210 -15602259.712 19400166.323 10 0 59611 33300.00000 0 -5423236.038 -17867830.635 17422564.840 10 0 59611 34200.00000 0 -5382205.078 -19882531.188 15107767.141 10 0 59611 35100.00000 0 -5504887.955 -21592362.230 12500764.896 10 0 59611 36000.00000 0 -5746526.264 -22953227.798 9652119.761 10 0 59611 36900.00000 0 -6055529.789 -23932611.946 6616987.343 10 0 59611 37800.00000 0 -6375855.204 -24510789.250 3454058.942 10 0 59611 38700.00000 0 -6649574.563 -24681521.073 224440.571 10 0 59611 39600.00000 0 -6819526.495 -24452210.552 -3009510.165 10 0 59611 40500.00000 0 -6831939.955 -23843511.325 -6185368.420 10 0 59611 41400.00000 0 -6638921.685 -22888406.964 -9241826.495 10 0 59611 42300.00000 0 -6200704.207 -21630799.467 -12119857.060 10 0 59611 43200.00000 0 -5487560.859 -20123664.872 -14763834.574 10 0 59611 44100.00000 0 -4481307.780 -18426851.537 -17122594.925 10 0 59611 45000.00000 0 -3176329.412 -16604611.033 -19150414.194 10 0 59611 45900.00000 0 -1580083.141 -14722962.578 -20807888.829 10 0 59611 46800.00000 0 286940.324 -12846998.789 -22062700.928 10 0 59611 47700.00000 0 2391802.217 -11038243.323 -22890253.993 10 0 59611 48600.00000 0 4690225.826 -9352169.275 -23274166.489 10 0 59611 49500.00000 0 7128189.117 -7835981.103 -23206612.694 10 0 59611 50400.00000 0 9643937.300 -6526752.769 -22688502.648 10 0 59611 51300.00000 0 12170335.021 -5450000.596 -21729495.669 10 0 59611 52200.00000 0 14637462.991 -4618751.909 -20347844.729 10 0 59611 53100.00000 0 16975352.586 -4033150.335 -18570072.135 10 0 59611 54000.00000 0 19116745.191 -3680616.348 -16430480.221 10 0 59611 54900.00000 0 20999760.701 -3536558.185 -13970504.254 10 0 59611 55800.00000 0 22570362.216 -3565604.810 -11237918.369 10 0 59611 56700.00000 0 23784511.670 -3723309.723 -8285908.877 10 0 59611 57600.00000 0 24609923.416 -3958253.672 -5172032.617 10 0 59611 58500.00000 0 25027339.475 -4214456.371 -1957081.319 10 0 59611 59400.00000 0 25031270.516 -4433993.217 1296124.587 10 0 59611 60300.00000 0 24630169.701 -4559703.464 4523987.108 10 0 59611 61200.00000 0 23846031.259 -4537871.874 7663399.738 10 0 59611 62100.00000 0 22713430.956 -4320766.777 10653006.868 10 0 59611 63000.00000 0 21278050.097 -3868923.722 13434426.248 10 0 59611 63900.00000 0 19594747.336 -3153075.264 15953408.056 10 0 59611 64800.00000 0 17725262.105 -2155643.161 18160906.100 10 0 59611 65700.00000 0 15735649.111 -871728.737 20014039.027 10 0 59611 66600.00000 0 13693554.453 690440.633 21476922.309 10 0 59611 67500.00000 0 11665449.845 2509627.220 22521355.206 10 0 59611 68400.00000 0 9713942.231 4552254.810 23127350.449 10 0 59611 69300.00000 0 7895271.851 6773606.960 23283498.008 10 0 59611 70200.00000 0 6257102.649 9119499.833 22987158.046 10 0 59611 71100.00000 0 4836695.563 11528358.190 22244481.660 10 0 59611 72000.00000 0 3659538.378 13933606.711 21070261.362 10 0 59611 72900.00000 0 2738485.985 16266276.451 19487616.479 10 0 59611 73800.00000 0 2073443.257 18457718.029 17527521.420 10 0 59611 74700.00000 0 1651600.115 20442309.380 15228187.515 10 0 59611 75600.00000 0 1448205.459 22160046.912 12634311.393 10 0 59611 76500.00000 0 1427844.685 23558914.273 9796204.942 10 0 59611 77400.00000 0 1546165.137 24596932.394 6768823.760 10 0 59611 78300.00000 0 1751975.815 25243807.970 3610712.430 10 0 59611 79200.00000 0 1989632.782 25482114.056 382886.117 10 0 59611 80100.00000 0 2201610.412 25307955.582 -2852331.014 10 0 59611 81000.00000 0 2331151.385 24731093.543 -6032489.611 10 0 59611 81900.00000 0 2324885.323 23774523.525 -9096200.010 10 0 59611 82800.00000 0 2135307.437 22473526.213 -11984296.980 10 0 59611 83700.00000 0 1723014.223 20874228.807 -14640963.621 10 0 59611 84600.00000 0 1058603.028 19031735.939 -17014794.452 10 0 59611 85500.00000 0 124155.859 17007906.132 -19059778.515 10 0 59612 0.00000 0 -1085755.484 14868864.386 -20736184.586 10 0 59612 900.00000 0 -2563587.465 12682350.942 -22011332.955 10 0 59612 1800.00000 0 -4288887.073 10515017.378 -22860236.868 10 0 59612 2700.00000 0 -6228901.135 8429776.928 -23266103.891 10 0 59612 3600.00000 0 -8339709.445 6483320.963 -23220684.246 10 0 59612 4500.00000 0 -10567838.875 4723903.447 -22724458.745 10 0 59612 5400.00000 0 -12852294.781 3189486.131 -21786660.549 10 0 59612 6300.00000 0 -15126928.170 1906322.741 -20425127.870 10 0 59612 7200.00000 0 -17323042.173 888042.872 -18665987.911 10 0 59612 8100.00000 0 -19372130.312 135275.692 -16543175.587 10 0 59612 9000.00000 0 -21208632.358 -364168.925 -14097794.033 10 0 59612 9900.00000 0 -22772591.456 -634567.765 -11377327.530 10 0 59612 10800.00000 0 -24012099.374 -711029.967 -8434720.988 10 0 59612 11700.00000 0 -24885424.741 -637773.580 -5327343.503 10 0 59612 12600.00000 0 -25362731.973 -466006.375 -2115856.785 10 0 59612 13500.00000 0 -25427315.870 -251502.108 1136988.208 10 0 59612 14400.00000 0 -25076297.548 -51977.222 4367600.913 10 0 59612 15300.00000 0 -24320750.880 75617.840 7512820.066 10 0 59612 16200.00000 0 -23185253.526 77774.512 10511174.336 10 0 59612 17100.00000 0 -21706881.914 -93047.598 13304107.292 10 0 59612 18000.00000 0 -19933693.934 -476154.063 15837140.243 10 0 59612 18900.00000 0 -17922765.352 -1100707.020 18060948.303 10 0 59612 19800.00000 0 -15737865.060 -1984256.894 19932327.478 10 0 59612 20700.00000 0 -13446869.496 -3131777.154 21415033.347 10 0 59612 21600.00000 0 -11119026.987 -4535242.595 22480475.434 10 0 59612 22500.00000 0 -8822188.285 -6173767.999 23108254.775 10 0 59612 23400.00000 0 -6620120.000 -8014299.831 23286535.942 10 0 59612 24300.00000 0 -4570012.932 -10012830.234 23012248.392 10 0 59612 25200.00000 0 -2720287.979 -12116080.775 22291115.604 10 0 59612 26100.00000 0 -1108788.945 -14263584.028 21137513.799 10 0 59612 27000.00000 0 238565.512 -16390075.052 19574165.247 10 0 59612 27900.00000 0 1308618.178 -18428092.666 17631673.986 10 0 59612 28800.00000 0 2101266.750 -20310682.251 15347914.531 10 0 59612 29700.00000 0 2629205.983 -21974088.448 12767286.428 10 0 59612 30600.00000 0 2917132.687 -23360327.080 9939849.606 10 0 59612 31500.00000 0 3000449.546 -24419531.023 6920357.354 10 0 59612 32400.00000 0 2923524.007 -25111974.471 3767205.186 10 0 59612 33300.00000 0 2737576.328 -25409693.388 541315.038 10 0 59612 34200.00000 0 2498285.617 -25297636.497 -2695024.720 10 0 59612 35100.00000 0 2263213.894 -24774300.376 -5879342.569 10 0 59612 36000.00000 0 2089155.341 -23851823.055 -8950169.205 10 0 59612 36900.00000 0 2029520.790 -22555532.449 -11848203.776 10 0 59612 37800.00000 0 2131865.961 -20922967.915 -14517440.280 10 0 59612 38700.00000 0 2435666.219 -19002414.402 -16906234.059 10 0 59612 39600.00000 0 2970430.687 -16851008.433 -18968289.197 10 0 59612 40500.00000 0 3754235.018 -14532492.405 -20663548.975 10 0 59612 41400.00000 0 4792735.380 -12114708.058 -21958972.945 10 0 59612 42300.00000 0 6078706.864 -9666930.922 -22829185.807 10 0 59612 43200.00000 0 7592128.376 -7257154.223 -23256985.275 10 0 59612 44100.00000 0 9300813.859 -4949433.440 -23233698.186 10 0 59612 45000.00000 0 11161567.167 -2801400.884 -22759376.433 10 0 59612 45900.00000 0 13121816.122 -862053.367 -21842826.949 10 0 59612 46800.00000 0 15121660.940 830094.489 -20501472.735 10 0 59612 47700.00000 0 17096254.175 2248413.116 -18761045.048 10 0 59612 48600.00000 0 18978414.516 3379056.915 -16655110.125 10 0 59612 49500.00000 0 20701365.837 4221319.822 -14224437.268 10 0 59612 50400.00000 0 22201486.268 4787430.825 -11516218.737 10 0 59612 51300.00000 0 23420950.522 5101796.785 -8583155.423 10 0 59612 52200.00000 0 24310152.203 5199723.708 -5482425.647 10 0 59612 53100.00000 0 24829801.305 5125670.605 -2274557.741 10 0 59612 54000.00000 0 24952605.630 4931110.804 977770.379 10 0 59612 54900.00000 0 24664462.492 4672093.215 4210979.217 10 0 59612 55800.00000 0 23965108.246 4406609.534 7361856.330 10 0 59612 56700.00000 0 22868196.937 4191882.207 10368818.046 10 0 59612 57600.00000 0 21400804.395 4081691.446 13173136.860 10 0 59612 58500.00000 0 19602379.306 4123857.799 15720107.960 10 0 59612 59400.00000 0 17523186.988 4357989.564 17960130.131 10 0 59612 60300.00000 0 15222313.372 4813592.339 19849678.694 10 0 59612 61200.00000 0 12765315.520 5508621.630 21352150.899 10 0 59612 62100.00000 0 10221619.514 6448539.758 22438567.668 10 0 59612 63000.00000 0 7661776.535 7625916.089 23088119.070 10 0 59612 63900.00000 0 5154693.129 9020585.983 23288544.541 10 0 59612 64800.00000 0 2764951.507 10600360.010 23036342.629 10 0 59612 65700.00000 0 550330.832 12322251.715 22336808.498 10 0 59612 66600.00000 0 -1440368.909 14134170.660 21203900.884 10 0 59612 67500.00000 0 -3169112.540 15977008.444 19659943.320 10 0 59612 68400.00000 0 -4609953.821 17787029.623 17735167.366 10 0 59612 69300.00000 0 -5749846.615 19498467.338 15467108.250 10 0 59612 70200.00000 0 -6588913.148 21046215.738 12899865.681 10 0 59612 71100.00000 0 -7140161.872 22368507.839 10083244.685 10 0 59612 72000.00000 0 -7428669.817 23409468.586 7071793.182 10 0 59612 72900.00000 0 -7490266.162 24121438.421 3923754.505 10 0 59612 73800.00000 0 -7369773.797 24466972.394 699954.270 10 0 59612 74700.00000 0 -7118883.356 24420433.169 -2537357.980 10 0 59612 75600.00000 0 -6793748.887 23969113.044 -5725691.447 10 0 59612 76500.00000 0 -6452405.371 23113839.125 -8803499.885 10 0 59612 77400.00000 0 -6152115.335 21869036.783 -11711349.285 10 0 59612 78300.00000 0 -5946754.619 20262248.342 -14393046.714 10 0 59612 79200.00000 0 -5884345.697 18333125.898 -16796710.207 10 0 59612 80100.00000 0 -6004841.148 16131938.385 -18875760.456 10 0 59612 81000.00000 0 -6338249.818 13717652.653 -20589816.388 10 0 59612 81900.00000 0 -6903184.667 11155665.553 -21905478.127 10 0 59612 82800.00000 0 -7705894.313 8515278.575 -22796982.412 10 0 59612 83700.00000 0 -8739820.939 5867017.202 -23246717.587 10 0 59612 84600.00000 0 -9985705.891 3279904.059 -23245587.299 10 0 59612 85500.00000 0 -11412241.879 818797.567 -22793214.369 10 0 59613 0.00000 0 -12977247.956 -1458094.071 -21897979.062 10 0 59613 900.00000 0 -14629322.481 -3501421.386 -20576888.032 10 0 59613 1800.00000 0 -16309905.784 -5272528.970 -18855275.225 10 0 59613 2700.00000 0 -17955671.258 -6744843.879 -16766336.336 10 0 59613 3600.00000 0 -19501143.859 -7904754.277 -14350504.576 10 0 59613 4500.00000 0 -20881437.102 -8751941.000 -11654677.611 10 0 59613 5400.00000 0 -22034992.476 -9299146.338 -8731309.505 10 0 59613 6300.00000 0 -22906204.108 -9571388.719 -5637384.845 10 0 59613 7200.00000 0 -23447815.422 -9604656.012 -2433295.541 10 0 59613 8100.00000 0 -23622983.704 -9444133.234 818356.600 10 0 59613 9000.00000 0 -23406922.407 -9142041.073 4054006.209 10 0 59613 9900.00000 0 -22788049.144 -8755179.064 7210392.660 10 0 59613 10800.00000 0 -21768588.939 -8342280.423 10225822.832 10 0 59613 11700.00000 0 -20364606.131 -7961293.943 13041400.879 10 0 59613 12600.00000 0 -18605463.529 -7666711.373 15602198.362 10 0 59613 13500.00000 0 -16532732.402 -7507056.381 17858339.934 10 0 59613 14400.00000 0 -14198600.742 -7522643.663 19765982.042 10 0 59613 15300.00000 0 -11663848.774 -7743704.306 21288164.980 10 0 59613 16200.00000 0 -8995478.825 -8188957.029 22395521.975 10 0 59613 17100.00000 0 -6264100.726 -8864685.091 23066832.539 10 0 59613 18000.00000 0 -3541183.581 -9764356.422 23289410.938 10 0 59613 18900.00000 0 -896289.261 -10868801.104 23059324.338 10 0 59613 19800.00000 0 1605597.373 -12146936.618 22381438.754 10 0 59613 20700.00000 0 3906531.471 -13557008.179 21269294.269 10 0 59613 21600.00000 0 5957764.175 -15048290.308 19744814.239 10 0 59613 22500.00000 0 7721504.814 -16563176.884 17837856.054 10 0 59613 23400.00000 0 9172219.397 -18039571.376 15585613.728 10 0 59613 24300.00000 0 10297415.196 -19413477.104 13031884.988 10 0 59613 25200.00000 0 11097882.418 -20621679.737 10226217.605 10 0 59613 26100.00000 0 11587386.310 -21604410.964 7222951.599 10 0 59613 27000.00000 0 11791825.460 -22307883.511 4080175.474 10 0 59613 27900.00000 0 11747893.615 -22686593.302 858615.809 10 0 59613 28800.00000 0 11501302.319 -22705294.311 -2379519.393 10 0 59613 29700.00000 0 11104639.285 -22340565.116 -5571722.712 10 0 59613 30600.00000 0 10614951.978 -21581902.819 -8656373.514 10 0 59613 31500.00000 0 10091156.821 -20432299.153 -11573907.047 10 0 59613 32400.00000 0 9591381.396 -18908274.510 -14267945.714 10 0 59613 33300.00000 0 9170349.703 -17039367.452 -16686372.333 10 0 59613 34200.00000 0 8876918.850 -14867099.248 -18782326.101 10 0 59613 35100.00000 0 8751869.575 -12443454.169 -20515103.259 10 0 59613 36000.00000 0 8826042.941 -9828935.839 -21850945.891 10 0 59613 36900.00000 0 9118901.796 -7090277.440 -22763703.862 10 0 59613 37800.00000 0 9637578.557 -4297897.769 -23235356.898 10 0 59613 38700.00000 0 10376451.392 -1523206.002 -23256385.856 10 0 59613 39600.00000 0 11317269.275 1164135.055 -22825984.553 10 0 59613 40500.00000 0 12429823.954 3698875.089 -21952106.115 10 0 59613 41400.00000 0 13673144.012 6022661.643 -20651340.568 10 0 59613 42300.00000 0 14997164.107 8086240.995 -18948623.493 10 0 59613 43200.00000 0 16344801.940 9851281.943 -16876778.764 10 0 59613 44100.00000 0 17654357.533 11291744.857 -14475901.858 10 0 59613 45000.00000 0 18862134.616 12394736.834 -11792593.819 10 0 59613 45900.00000 0 19905173.425 13160815.372 -8879059.468 10 0 59613 46800.00000 0 20723978.313 13603726.351 -5792086.889 10 0 59613 47700.00000 0 21265122.702 13749586.506 -2591928.500 10 0 59613 48600.00000 0 21483618.518 13635544.890 658893.272 10 0 59613 49500.00000 0 21344946.769 13307980.833 3896830.543 10 0 59613 50400.00000 0 20826660.432 12820316.424 7058577.828 10 0 59613 51300.00000 0 19919489.369 12230538.747 10082335.742 10 0 59613 52200.00000 0 18627898.792 11598539.857 12909043.052 10 0 59613 53100.00000 0 16970076.892 10983390.436 15483550.366 10 0 59613 54000.00000 0 14977352.272 10440665.582 17755710.554 10 0 59613 54900.00000 0 12693066.651 10019938.440 19681363.212 10 0 59613 55800.00000 0 10170951.892 9762549.369 21223193.355 10 0 59613 56700.00000 0 7473081.404 9699745.632 22351447.837 10 0 59613 57600.00000 0 4667483.651 9851269.886 23044496.572 10 0 59613 58500.00000 0 1825519.237 10224455.817 23289229.190 10 0 59613 59400.00000 0 -980867.936 10813867.102 23081281.575 10 0 59613 60300.00000 0 -3681910.698 11601492.570 22425090.199 10 0 59613 61200.00000 0 -6212675.537 12557486.813 21333775.597 10 0 59613 62100.00000 0 -8515507.568 13641422.777 19828859.548 10 0 59613 63000.00000 0 -10542164.356 14804001.783 17939823.384 10 0 59613 63900.00000 0 -12255552.881 15989147.817 15703517.601 10 0 59613 64800.00000 0 -13631000.983 17136397.560 13163435.316 10 0 59613 65700.00000 0 -14657013.986 18183486.020 10368864.172 10 0 59613 66600.00000 0 -15335488.462 19069020.020 7373933.291 10 0 59613 67500.00000 0 -15681377.333 19735128.783 4236573.283 10 0 59613 68400.00000 0 -15721822.780 20129982.107 1017408.638 10 0 59613 69300.00000 0 -15494794.894 20210072.351 -2221397.174 10 0 59613 70200.00000 0 -15047293.900 19942166.290 -5417323.015 10 0 59613 71100.00000 0 -14433191.320 19304846.372 -8508676.616 10 0 59613 72000.00000 0 -13710799.842 18289577.651 -11435765.067 10 0 59613 72900.00000 0 -12940272.589 16901255.804 -14142028.458 10 0 59613 73800.00000 0 -12180939.270 15158212.558 -16575116.480 10 0 59613 74700.00000 0 -11488689.366 13091676.779 -18687888.619 10 0 59613 75600.00000 0 -10913510.655 10744711.341 -20439319.908 10 0 59613 76500.00000 0 -10497285.381 8170667.123 -21795295.563 10 0 59613 77400.00000 0 -10271936.147 5431215.223 -22729279.446 10 0 59613 78300.00000 0 -10257999.795 2594035.765 -23222843.230 10 0 59613 79200.00000 0 -10463690.359 -269743.941 -23266045.243 10 0 59613 80100.00000 0 -10884492.466 -3088258.178 -22857650.213 10 0 59613 81000.00000 0 -11503304.922 -5791648.151 -22005183.776 10 0 59613 81900.00000 0 -12291131.459 -8314731.046 -20724818.336 10 0 59613 82800.00000 0 -13208292.681 -10599482.054 -19041089.917 10 0 59613 83700.00000 0 -14206111.008 -12597225.453 -16986448.926 10 0 59613 84600.00000 0 -15228999.824 -14270442.117 -14600651.094 10 0 59613 85500.00000 0 -16216870.064 -15594116.022 -11929998.517 10 0 59614 0.00000 0 -17107752.846 -16556561.410 -9026444.475 10 0 59614 900.00000 0 -17840526.981 -17159694.523 -5946577.273 10 0 59614 1800.00000 0 -18357633.021 -17418735.911 -2750507.238 10 0 59614 2700.00000 0 -18607658.014 -17361357.019 499325.528 10 0 59614 3600.00000 0 -18547677.225 -17026305.998 3739393.581 10 0 59614 4500.00000 0 -18145251.025 -16461572.665 6906349.546 10 0 59614 5400.00000 0 -17379989.420 -15722172.233 9938290.692 10 0 59614 6300.00000 0 -16244615.735 -14867644.413 12775993.210 10 0 59614 7200.00000 0 -14745483.004 -13959376.813 15364089.403 10 0 59614 8100.00000 0 -12902520.742 -13057869.037 17652162.746 10 0 59614 9000.00000 0 -10748614.644 -12220055.902 19595738.055 10 0 59614 9900.00000 0 -8328446.478 -11496804.956 21157146.739 10 0 59614 10800.00000 0 -5696844.488 -10930695.086 22306250.522 10 0 59614 11700.00000 0 -2916715.241 -10554170.000 23021010.501 10 0 59614 12600.00000 0 -56645.201 -10388143.512 23287892.018 10 0 59614 13500.00000 0 2811726.554 -10441113.535 23102099.599 10 0 59614 14400.00000 0 5616454.347 -10708819.628 22467639.716 10 0 59614 15300.00000 0 8288036.407 -11174455.696 21397212.558 10 0 59614 16200.00000 0 10762056.566 -11809426.065 19911937.217 10 0 59614 17100.00000 0 12981609.227 -12574610.616 18040917.571 10 0 59614 18000.00000 0 14899409.347 -13422083.760 15820658.920 10 0 59614 18900.00000 0 16479502.886 -14297213.710 13294347.794 10 0 59614 19800.00000 0 17698510.009 -15141053.276 10511009.439 10 0 59614 20700.00000 0 18546352.608 -15892921.934 7524559.518 10 0 59614 21600.00000 0 19026439.095 -16493071.567 4392767.949 10 0 59614 22500.00000 0 19155301.385 -16885325.286 1176154.137 10 0 59614 23400.00000 0 18961701.238 -17019580.148 -2063166.072 10 0 59614 24300.00000 0 18485244.529 -16854070.388 -5262660.908 10 0 59614 25200.00000 0 17774561.817 -16357297.689 -8360569.463 10 0 59614 26100.00000 0 16885130.962 -15509548.544 -11297073.488 10 0 59614 27000.00000 0 15876831.935 -14303935.501 -14015433.353 10 0 59614 27900.00000 0 14811334.743 -12746918.276 -16463067.950 10 0 59614 28800.00000 0 13749428.140 -10858281.681 -18592559.112 10 0 59614 29700.00000 0 12748399.330 -8670569.196 -20362562.423 10 0 59614 30600.00000 0 11859573.007 -6227992.945 -21738607.676 10 0 59614 31500.00000 0 11126111.904 -3584862.211 -22693773.836 10 0 59614 32400.00000 0 10581170.774 -803592.257 -23209225.280 10 0 59614 33300.00000 0 10246481.687 2047627.398 -23274598.205 10 0 59614 34200.00000 0 10131431.282 4897411.473 -22888228.293 10 0 59614 35100.00000 0 10232670.678 7673899.792 -22057213.385 10 0 59614 36000.00000 0 10534276.921 10307509.245 -20797307.608 10 0 59614 36900.00000 0 11008461.924 12733603.196 -19132646.447 10 0 59614 37800.00000 0 11616801.719 14894967.143 -17095305.516 10 0 59614 38700.00000 0 12311936.514 16743986.418 -14724699.126 10 0 59614 39600.00000 0 13039671.387 18244433.257 -12066828.386 10 0 59614 40500.00000 0 13741389.570 19372786.409 -9173392.107 10 0 59614 41400.00000 0 14356675.889 20119025.884 -6100777.126 10 0 59614 42300.00000 0 14826037.921 20486867.575 -2908948.141 10 0 59614 43200.00000 0 15093607.335 20493426.727 339740.289 10 0 59614 44100.00000 0 15109704.022 20168324.103 3581784.502 10 0 59614 45000.00000 0 14833151.130 19552273.151 6753798.545 10 0 59614 45900.00000 0 14233239.772 18695209.469 9793779.538 10 0 59614 46800.00000 0 13291257.454 17654043.965 12642344.079 10 0 59614 47700.00000 0 12001513.526 16490137.606 15243908.880 10 0 59614 48600.00000 0 10371817.174 15266607.575 17547790.425 10 0 59614 49500.00000 0 8423387.447 14045581.530 19509200.831 10 0 59614 50400.00000 0 6190199.802 12885518.254 21090119.647 10 0 59614 51300.00000 0 3717797.801 11838709.232 22260024.878 10 0 59614 52200.00000 0 1061621.407 10949066.947 22996469.843 10 0 59614 53100.00000 0 -1715076.332 10250292.482 23285496.243 10 0 59614 54000.00000 0 -4543635.767 9764497.925 23121877.459 10 0 59614 54900.00000 0 -7352618.904 9501339.088 22509189.713 10 0 59614 55800.00000 0 -10070549.593 9457692.069 21459712.100 10 0 59614 56700.00000 0 -12628652.164 9617884.020 19994159.765 10 0 59614 57600.00000 0 -14963475.968 9954465.331 18141257.380 10 0 59614 58500.00000 0 -17019298.722 10429488.096 15937162.842 10 0 59614 59400.00000 0 -18750211.462 10996235.020 13424753.515 10 0 59614 60300.00000 0 -20121801.464 11601324.810 10652789.401 10 0 59614 61200.00000 0 -21112366.265 12187105.017 7674969.677 10 0 59614 62100.00000 0 -21713611.343 12694232.031 4548900.460 10 0 59614 63000.00000 0 -21930805.131 13064330.654 1334992.970 10 0 59614 63900.00000 0 -21782387.028 13242622.829 -1904687.624 10 0 59614 64800.00000 0 -21299046.271 13180416.611 -5107601.877 10 0 59614 65700.00000 0 -20522310.839 12837352.353 -8211923.087 10 0 59614 66600.00000 0 -19502705.231 12183313.026 -11157710.352 10 0 59614 67500.00000 0 -18297553.376 11199919.202 -13888046.822 10 0 59614 68400.00000 0 -16968517.147 9881546.008 -16350122.847 10 0 59614 69300.00000 0 -15578971.692 8235818.598 -18496244.568 10 0 59614 70200.00000 0 -14191325.492 6283563.704 -20284749.734 10 0 59614 71100.00000 0 -12864395.419 4058216.649 -21680813.966 10 0 59614 72000.00000 0 -11650945.232 1604705.438 -22657132.191 10 0 59614 72900.00000 0 -10595489.577 -1022145.289 -23194461.979 10 0 59614 73800.00000 0 -9732455.270 -3759627.851 -23282017.493 10 0 59614 74700.00000 0 -9084777.418 -6539502.402 -22917705.099 10 0 59614 75600.00000 0 -8662990.547 -9290590.582 -22108194.203 10 0 59614 76500.00000 0 -8464854.763 -11941506.435 -20868819.654 10 0 59614 77400.00000 0 -8475534.955 -14423412.374 -19223315.050 10 0 59614 78300.00000 0 -8668327.927 -16672685.852 -17203379.537 10 0 59614 79200.00000 0 -9005909.026 -18633384.999 -14848084.038 10 0 59614 80100.00000 0 -9442047.442 -20259408.731 -12203126.486 10 0 59614 81000.00000 0 -9923718.634 -21516258.959 -9319949.103 10 0 59614 81900.00000 0 -10393524.578 -22382328.747 -6254734.246 10 0 59614 82800.00000 0 -10792318.350 -22849660.041 -3067298.662 10 0 59614 83700.00000 0 -11061919.909 -22924137.357 180091.246 10 0 59614 84600.00000 0 -11147805.195 -22625108.238 3423958.240 10 0 59614 85500.00000 0 -11001651.392 -21984446.346 6600880.432 99